Weather History for LHUD - May, 2013

Change the Weather History Date:

Friday, May 10, 2013

  Actual Average (LRAR) Record (LRAR)
Temperature  
Mean Temperature 66 °F -  
Max Temperature 79 °F 74 °F 87 °F (2003)
Min Temperature 52 °F 53 °F 39 °F (2008)
Growing Degree Days 16 (Base 50)    
Moisture  
Dew Point 51 °F    
Average Humidity 56    
Maximum Humidity 100    
Minimum Humidity 25    
Precipitation  
Precipitation 0.00 in 0.08 in - ()
Sea Level Pressure  
Sea Level Pressure 29.94 in    
Wind  
Wind Speed 7 mph ()    
Max Wind Speed 18 mph    
Max Gust Speed -    
Visibility 17.5 miles    
Events      
Averages and records for this station are not official NWS values.
T = Trace of Precipitation, MM = Missing Value Source: Averaged Metar Reports

Daily Weather History Graph

Daily Weather History Graph

Search for Another Location

Airport or City:

Trip Planner

Search our weather history database for the weather conditions in past years. The results will help you decide how hot, cold, wet, or windy it might be!

Date:

Astronomy

May. 10, 2013 Rise Set
Actual Time 5:13 AM CEST 7:59 PM CEST
Civil Twilight 4:38 AM CEST 8:34 PM CEST
Nautical Twilight 3:54 AM CEST 9:18 PM CEST
Astronomical Twilight 3:03 AM CEST 10:10 PM CEST
Moon 5:25 AM CEST (5/10) 8:34 PM CEST (5/10)
Length of Visible Light 15h 56m
Length of Day
14h 46m
New Moon, 0% of the Moon is Illuminated
May 10
New Moon
May 18
First Quarter
May 25
Full
May 31
Last Quarter
Jun 8
New

Hourly Weather History & Observations

Time (CEST) Temp. Dew Point Humidity Pressure Visibility Wind Dir Wind Speed Gust Speed Precip Events Conditions
12:45 AM 57.2 °F 55.4 °F 94% 30.04 in - North 2.3 mph - N/A   Clear
1:45 AM 55.4 °F 55.4 °F 100% 30.01 in - East 2.3 mph - N/A   Clear
2:00 AM 55 °F 55 °F 99% 30.01 in 16 mi East 2.2 mph - -   Partly Cloudy
2:45 AM 55.4 °F 53.6 °F 94% 30.01 in - ENE 2.3 mph - N/A   Clear
3:45 AM 53.6 °F 53.6 °F 100% 29.98 in - ENE 2.3 mph - N/A   Clear
4:45 AM 57.2 °F 51.8 °F 82% 29.98 in - ENE 8.1 mph - N/A   Clear
5:45 AM 57.2 °F 51.8 °F 82% 29.98 in - ENE 8.1 mph - N/A   Clear
7:15 AM 62.6 °F 53.6 °F 72% 29.98 in - East 10.4 mph - N/A   Clear
7:45 AM 64.4 °F 53.6 °F 68% 29.98 in - East 5.8 mph - N/A   Clear
8:00 AM 64 °F 54 °F 63% 29.97 in 19 mi East 6.7 mph - -   Partly Cloudy
8:15 AM 64.4 °F 55.4 °F 73% 29.98 in - ESE 5.8 mph - N/A   Clear
8:45 AM 66.2 °F 57.2 °F 73% 29.98 in - ESE 9.2 mph - N/A   Clear
9:15 AM 68.0 °F 57.2 °F 68% 29.98 in - ESE 6.9 mph - N/A   Clear
9:45 AM 69.8 °F 55.4 °F 60% 29.98 in - ESE 10.4 mph - N/A   Clear
10:15 AM 71.6 °F 55.4 °F 57% 29.98 in - SE 10.4 mph - N/A   Clear
10:45 AM 73.4 °F 55.4 °F 53% 29.98 in - SSE 11.5 mph - N/A   Clear
11:15 AM 73.4 °F 48.2 °F 41% 29.98 in - SSE 18.4 mph - N/A   Clear
11:45 AM 75.2 °F 50.0 °F 41% 29.98 in - South 15.0 mph - N/A   Clear
12:15 PM 75.2 °F 48.2 °F 38% 29.95 in - SSE 16.1 mph - N/A   Clear
12:45 PM 75.2 °F 48.2 °F 38% 29.95 in - SSE 16.1 mph - N/A   Clear
1:15 PM 77.0 °F 48.2 °F 36% 29.95 in - South 15.0 mph - N/A   Clear
1:45 PM 77.0 °F 46.4 °F 34% 29.95 in - SSE 13.8 mph - N/A   Clear
2:00 PM 76 °F 47 °F 25% 29.93 in 31 mi SSE 13.4 mph - -   Partly Cloudy
2:15 PM 77.0 °F 48.2 °F 36% 29.92 in - SSE 12.7 mph - N/A   Clear
2:45 PM 78.8 °F 46.4 °F 32% 29.92 in - SSE 12.7 mph - N/A   Clear
3:15 PM 78.8 °F 48.2 °F 34% 29.92 in - SSE 12.7 mph - N/A   Clear
3:45 PM 78.8 °F 46.4 °F 32% 29.89 in - SSE 12.7 mph - N/A   Clear
4:45 PM 78.8 °F 48.2 °F 34% 29.89 in - SE 10.4 mph - N/A   Clear
5:15 PM 78.8 °F 48.2 °F 34% 29.86 in - SE 10.4 mph - N/A   Clear
5:45 PM 78.8 °F 48.2 °F 34% 29.86 in - SSE 9.2 mph - N/A   Clear
6:45 PM 77.0 °F 50.0 °F 39% 29.86 in - SSE 6.9 mph - N/A   Clear
7:15 PM 75.2 °F 51.8 °F 44% 29.86 in - SE 5.8 mph - N/A   Clear
7:45 PM 71.6 °F 51.8 °F 50% 29.86 in - SE 5.8 mph - N/A   Clear
8:00 PM 72 °F 52 °F 39% 29.84 in 25 mi SE 4.5 mph - -   Partly Cloudy
8:45 PM 68.0 °F 51.8 °F 56% 29.86 in - SSE 6.9 mph - N/A   Clear
9:15 PM 66.2 °F 51.8 °F 60% 29.86 in - SSE 6.9 mph - N/A   Clear
9:45 PM 66.2 °F 50.0 °F 56% 29.86 in - SSE 9.2 mph - N/A   Clear
10:45 PM 64.4 °F 50.0 °F 59% 29.89 in - SSE 10.4 mph - N/A   Clear
11:45 PM 64.4 °F 50.0 °F 59% 29.89 in - South 9.2 mph - N/A   Clear